Location: Unspecified
(0.0000°N, 0.0000°E)
Time: 19:06:44
(UTC+00:00)

AO-7 - Pass Details

Date: 10 December 2017
Orbit: 1440 x 1458 km, 101.7° (Epoch: 15 January)

Event Time Altitude Azimuth Distance (km) Brightness Sun altitude
Exits shadow 03:32:18 64° 341° (NNW) 1,586 ? -32.0°
Maximum altitude 03:33:35 75° 287° (WNW) 1,503 ? -31.7°
Drops below altitude 10° 03:41:56 10° 202° (SSW) 3,579 ? -29.8°
Sets 03:44:44 0° 200° (SSW) 4,557 ? -29.2°
